Location: Altamira
(10.5079°N, 66.8544°W)
Time: 02:34:45
(UTC+00:00)

CORIOLIS - Pass Details

Date: 12 July 2022
Orbit: 818 x 838 km, 98.7° (Epoch: 08 August)

Event Time Altitude Azimuth Distance (km) Brightness Sun altitude
Rises 23:06:46 0° 191° (SSW) 3,344 7.2 -3.8°
Reaches altitude 10° 23:09:28 10° 204° (SSW) 2,409 6.6 -4.4°
Maximum altitude 23:13:50 26° 259° (W) 1,560 6.4 -5.3°
Drops below altitude 10° 23:18:12 10° 315° (NW) 2,405 7.9 -6.3°
Sets 23:20:55 0° 327° (NNW) 3,337 8.4 -6.9°
